Weather History for Shenandoah, IA

Change the Weather History Date:

Monday, January 21, 2013

  Actual Average Record
Temperature  
Mean Temperature 14 °F -  
Max Temperature 19 °F 34 °F 60 °F (1964)
Min Temperature 10 °F 16 °F -14 °F (1970)
Degree Days  
Heating Degree Days 50    
Moisture  
Dew Point -3 °F    
Average Humidity 47    
Maximum Humidity 79    
Minimum Humidity 30    
Precipitation  
Precipitation 0.00 in - - ()
Sea Level Pressure  
Sea Level Pressure 30.41 in    
Wind  
Wind Speed 7 mph (NNW)    
Max Wind Speed 16 mph    
Max Gust Speed 23 mph    
Visibility 10 miles    
Events Snow    
Averages and records for this station are not official NWS values.
T = Trace of Precipitation, MM = Missing Value Source: NWS Daily Summary

Daily Weather History Graph

Daily Weather History Graph

Search for Another Location

Airport:

Trip Planner

Search our weather history database for the weather conditions in past years. The results will help you decide how hot, cold, wet, or windy it might be!

Date:

Astronomy

Jan. 21, 2013 Rise Set
Actual Time 7:40 AM CST 5:26 PM CST
Civil Twilight 7:10 AM CST 5:55 PM CST
Nautical Twilight 6:37 AM CST 6:29 PM CST
Astronomical Twilight 6:04 AM CST 7:01 PM CST
Moon 1:06 PM CST (1/21) 3:09 AM CST (1/21)
Length of Visible Light 10h 45m
Length of Day
9h 45m
Waxing Gibbous, 75% of the Moon is Illuminated
Jan 21
Waxing Gibbous
Jan 26
Full
Feb 3
Last Quarter
Feb 10
New
Feb 17
First Quarter

Hourly Weather History & Observations

Time (CST) Temp. Windchill Dew Point Humidity Pressure Visibility Wind Dir Wind Speed Gust Speed Precip Events Conditions
12:15 AM 12.2 °F - 6.8 °F 79% 30.42 in 10.0 mi Calm Calm - N/A   Scattered Clouds
12:35 AM 12.2 °F - 6.8 °F 79% 30.41 in 10.0 mi Calm Calm - N/A   Scattered Clouds
12:55 AM 12.2 °F - 6.8 °F 79% 30.41 in 10.0 mi Calm Calm - N/A   Mostly Cloudy
1:15 AM 15.8 °F 8.6 °F 8.6 °F 73% 30.42 in 10.0 mi NW 4.6 mph - N/A   Overcast
1:35 AM 17.6 °F 10.7 °F 10.4 °F 73% 30.41 in 10.0 mi NW 4.6 mph - N/A   Overcast
1:55 AM 17.6 °F - 10.4 °F 73% 30.41 in 10.0 mi Calm Calm - N/A Snow Light Snow
2:15 AM 17.6 °F 12.3 °F 10.4 °F 73% 30.40 in 10.0 mi WNW 3.5 mph - N/A Snow Light Snow
2:35 AM 17.6 °F 10.7 °F 10.4 °F 73% 30.41 in 10.0 mi WNW 4.6 mph - N/A Snow Light Snow
2:55 AM 17.6 °F 7.3 °F 10.4 °F 73% 30.40 in 10.0 mi NNW 8.1 mph - N/A Snow Light Snow
3:15 AM 19.4 °F 6.6 °F 10.4 °F 68% 30.40 in 10.0 mi North 12.7 mph - N/A Snow Light Snow
3:35 AM 17.6 °F 3.7 °F 8.6 °F 68% 30.41 in 10.0 mi North 13.8 mph 23.0 mph N/A   Overcast
3:55 AM 17.6 °F 4.3 °F 6.8 °F 63% 30.41 in 10.0 mi North 12.7 mph 20.7 mph N/A   Overcast
4:15 AM 15.8 °F 0.9 °F 5.0 °F 62% 30.41 in 10.0 mi North 15.0 mph 20.7 mph N/A   Overcast
4:55 AM 15.8 °F 0.3 °F 3.2 °F 58% 30.41 in 10.0 mi NNW 16.1 mph 20.7 mph N/A   Overcast
5:15 AM 15.8 °F 1.4 °F 1.4 °F 53% 30.41 in 10.0 mi NNW 13.8 mph 20.7 mph N/A   Overcast
5:35 AM 15.8 °F 2.1 °F 1.4 °F 53% 30.41 in 10.0 mi North 12.7 mph 20.7 mph N/A   Overcast
5:55 AM 14.0 °F -1.4 °F -0.4 °F 53% 30.42 in 10.0 mi North 15.0 mph - N/A   Overcast
6:15 AM 12.2 °F -2.5 °F -2.2 °F 53% 30.43 in 10.0 mi North 12.7 mph 19.6 mph N/A   Overcast
6:35 AM 12.2 °F -3.7 °F -2.2 °F 53% 30.42 in 10.0 mi North 15.0 mph - N/A   Overcast
6:55 AM 12.2 °F -3.7 °F -2.2 °F 53% 30.43 in 10.0 mi North 15.0 mph 20.7 mph N/A   Overcast
7:15 AM 12.2 °F -3.7 °F -2.2 °F 53% 30.44 in 10.0 mi North 15.0 mph - N/A   Overcast
7:35 AM 10.4 °F -5.4 °F -4.0 °F 52% 30.44 in 10.0 mi North 13.8 mph - N/A   Overcast
7:55 AM 10.4 °F -5.4 °F -5.8 °F 48% 30.45 in 10.0 mi NNW 13.8 mph - N/A   Overcast
8:15 AM 10.4 °F -5.4 °F -5.8 °F 48% 30.45 in 10.0 mi North 13.8 mph - N/A   Overcast
8:35 AM 10.4 °F -5.4 °F -7.6 °F 44% 30.45 in 10.0 mi North 13.8 mph - N/A   Mostly Cloudy
8:55 AM 10.4 °F -4.8 °F -5.8 °F 48% 30.45 in 10.0 mi North 12.7 mph - N/A   Scattered Clouds
9:15 AM 10.4 °F -6.0 °F -7.6 °F 44% 30.46 in 10.0 mi North 15.0 mph 20.7 mph N/A   Scattered Clouds
9:35 AM 12.2 °F -3.1 °F -5.8 °F 45% 30.46 in 10.0 mi North 13.8 mph - N/A   Clear
9:55 AM 12.2 °F -2.5 °F -7.6 °F 41% 30.47 in 10.0 mi NNW 12.7 mph - N/A   Scattered Clouds
10:15 AM 12.2 °F -1.0 °F -7.6 °F 41% 30.47 in 10.0 mi NNW 10.4 mph - N/A   Scattered Clouds
10:35 AM 12.2 °F -1.8 °F -7.6 °F 41% 30.48 in 10.0 mi North 11.5 mph - N/A   Scattered Clouds
10:55 AM 12.2 °F 0.7 °F -7.6 °F 41% 30.47 in 10.0 mi NNW 8.1 mph - N/A   Clear
11:15 AM 12.2 °F -0.2 °F -7.6 °F 41% 30.47 in 10.0 mi North 9.2 mph - N/A   Clear
11:35 AM 12.2 °F -0.2 °F -7.6 °F 41% 30.46 in 10.0 mi NNW 9.2 mph - N/A   Scattered Clouds
11:55 AM 12.2 °F 2.9 °F -9.4 °F 38% 30.45 in 10.0 mi NNW 5.8 mph - N/A   Scattered Clouds
12:15 PM 12.2 °F 0.7 °F -9.4 °F 38% 30.45 in 10.0 mi NW 8.1 mph - N/A   Clear
12:35 PM 12.2 °F 0.7 °F -7.6 °F 41% 30.44 in 10.0 mi NW 8.1 mph - N/A   Clear
12:55 PM 12.2 °F 1.7 °F -9.4 °F 38% 30.42 in 10.0 mi NW 6.9 mph - N/A   Scattered Clouds
1:15 PM 14.0 °F 2.9 °F -7.6 °F 38% 30.42 in 10.0 mi North 8.1 mph - N/A   Clear
1:35 PM 12.2 °F 0.7 °F -9.4 °F 38% 30.42 in 10.0 mi NW 8.1 mph - N/A   Scattered Clouds
1:55 PM 12.2 °F 6.1 °F -9.4 °F 38% 30.41 in 10.0 mi WNW 3.5 mph - N/A   Scattered Clouds
2:15 PM 14.0 °F 5.1 °F -9.4 °F 35% 30.41 in 10.0 mi NNW 5.8 mph - N/A   Clear
2:35 PM 14.0 °F 2.0 °F -11.2 °F 32% 30.42 in 10.0 mi NW 9.2 mph - N/A   Clear
2:55 PM 15.8 °F 5.1 °F -11.2 °F 30% 30.41 in 10.0 mi NNW 8.1 mph - N/A   Clear
3:15 PM 15.8 °F 7.2 °F -11.2 °F 30% 30.41 in 10.0 mi NNW 5.8 mph - N/A   Clear
3:35 PM 15.8 °F 5.1 °F -9.4 °F 32% 30.40 in 10.0 mi NW 8.1 mph - N/A   Scattered Clouds
3:55 PM 15.8 °F 7.2 °F -9.4 °F 32% 30.40 in 10.0 mi NW 5.8 mph - N/A   Mostly Cloudy
4:15 PM 15.8 °F 8.6 °F -9.4 °F 32% 30.39 in 10.0 mi NW 4.6 mph - N/A   Scattered Clouds
4:35 PM 15.8 °F 6.1 °F -9.4 °F 32% 30.39 in 10.0 mi NW 6.9 mph - N/A   Scattered Clouds
4:55 PM 15.8 °F 6.1 °F -11.2 °F 30% 30.39 in 10.0 mi NNW 6.9 mph - N/A   Mostly Cloudy
5:15 PM 15.8 °F 8.6 °F -9.4 °F 32% 30.39 in 10.0 mi NW 4.6 mph - N/A   Overcast
5:35 PM 15.8 °F 6.1 °F -9.4 °F 32% 30.39 in 10.0 mi NW 6.9 mph - N/A   Overcast
5:55 PM 15.8 °F 6.1 °F -9.4 °F 32% 30.38 in 10.0 mi NW 6.9 mph - N/A   Overcast
6:15 PM 15.8 °F 8.6 °F -9.4 °F 32% 30.38 in 10.0 mi NW 4.6 mph - N/A   Overcast
6:55 PM 15.8 °F 8.6 °F -7.6 °F 35% 30.39 in 10.0 mi NW 4.6 mph - N/A   Overcast
7:15 PM 15.8 °F 10.2 °F -7.6 °F 35% 30.39 in 10.0 mi NNW 3.5 mph - N/A   Mostly Cloudy
7:35 PM 15.8 °F - -5.8 °F 38% 30.39 in 10.0 mi Calm Calm - N/A   Mostly Cloudy
7:55 PM 15.8 °F - -5.8 °F 38% 30.39 in 10.0 mi Calm Calm - N/A   Overcast
8:15 PM 15.8 °F 10.2 °F -5.8 °F 38% 30.39 in 10.0 mi North 3.5 mph - N/A   Overcast
8:35 PM 15.8 °F - -5.8 °F 38% 30.39 in 10.0 mi Calm Calm - N/A   Overcast
8:55 PM 15.8 °F 7.2 °F -5.8 °F 38% 30.39 in 10.0 mi North 5.8 mph - N/A   Overcast
9:15 PM 15.8 °F 8.6 °F -4.0 °F 41% 30.39 in 10.0 mi NNE 4.6 mph - N/A   Overcast
9:35 PM 15.8 °F 8.6 °F -5.8 °F 38% 30.39 in 10.0 mi NE 4.6 mph - N/A   Overcast
9:55 PM 15.8 °F - -5.8 °F 38% 30.39 in 10.0 mi Calm Calm - N/A   Overcast
10:15 PM 15.8 °F - -2.2 °F 45% 30.38 in 10.0 mi Calm Calm - N/A   Mostly Cloudy
10:35 PM 15.8 °F 10.2 °F -2.2 °F 45% 30.38 in 10.0 mi NNE 3.5 mph - N/A   Scattered Clouds
10:55 PM 15.8 °F - -2.2 °F 45% 30.39 in 10.0 mi Calm Calm - N/A   Scattered Clouds
11:15 PM 15.8 °F - -2.2 °F 45% 30.39 in 10.0 mi Calm Calm - N/A   Scattered Clouds
11:35 PM 15.8 °F - -2.2 °F 45% 30.38 in 10.0 mi Calm Calm - N/A   Mostly Cloudy
11:55 PM 15.8 °F - -2.2 °F 45% 30.38 in 10.0 mi Calm Calm - N/A   Scattered Clouds